Miscellaneous Local Product
Issued by NWS North Platte, NE

Home | Current Version | Previous Version | Text Only | Print | Product List | Glossary Off
Versions: 1 2 3 4 5 6 7 8 9 10 11 12 13 14 15 16 17 18 19 20 21 22 23 24 25 26 27 28 29 30 31 32 33 34 35 36 37 38 39 40 41 42 43 44 45 46 47 48 49 50

000
AXUS43 KLBF 301710
MISLBF


WESTERN AND NORTH CENTRAL NEBRASKA HOURLY WEATHER ROUNDUP
NATIONAL WEATHER SERVICE NORTH PLATTE NE
1200 PM CDT FRI SEP 30 2016

NOTE: "FAIR" INDICATES FEW OR NO CLOUDS BELOW 12,000 FEET WITH NO
SIGNIFICANT WEATHER AND/OR OBSTRUCTIONS TO VISIBILITY.

NOTE: STATIONS NOT REPORTING VARIABLES SUCH AS SKY/WEATHER OR
PRESSURE ARE PROVIDED BY RAWS AND APRS NETWORKS AND ARE NOT UNDER
NATIONAL WEATHER SERVICE QUALITY CONTROL.

...OBSERVATIONS IN AND NEAR THE EASTERN PANHANDLE OF NEBRASKA...

CITY           SKY/WX    TMP DP  RH WIND       PRES   REMARKS
PINE RIDGE     CLOUDY    62  44  51 S9        30.14S
CHADRON        MOSUNNY   67  45  45 S12       30.12F
ALLIANCE       MOSUNNY   65  44  46 SE12      30.18F
SIDNEY         CLOUDY    59  43  55 S7        30.22F
CRESCENT LAKE    N/A     58  44  60 S6G13       N/A
$$

...OBSERVATIONS IN NORTHERN NEBRASKA AND FAR SOUTHERN SOUTH DAKOTA...

CITY           SKY/WX    TMP DP  RH WIND       PRES   REMARKS
WINNER         FAIR      65  48  54 S16       30.22F
VALENTINE      PTSUNNY   66  45  46 S18       30.21F
THEDFORD       PTSUNNY   65  48  52 S14G21    30.24F
AINSWORTH      MOSUNNY   61  48  62 SE12      30.24S
O`NEILL        SUNNY     67  45  46 SE14      30.26F
ORD            SUNNY     66  45  46 SE10      30.25F
BROKEN BOW     CLOUDY    63  47  55 S13       30.26F
VALENTINE NWR    N/A     62  47  57 S14G21      N/A
BUTTE            N/A     64  48  56 SE13G22     N/A
HALSEY           N/A     66  47  50 SE9G16      N/A
EWING            N/A     68  50  52 SE5         N/A
$$

...OBSERVATIONS IN SOUTHWEST NEBRASKA AND FAR NORTHEAST COLORADO...

CITY           SKY/WX    TMP DP  RH WIND       PRES   REMARKS
WRAY           FAIR      63  45  51 SE14      30.21F
HOLYOKE        FAIR      64  43  45 S10       30.21F
IMPERIAL       MOSUNNY   64  45  49 SE14      30.22S
OGALLALA       PTSUNNY   63  46  52 S8        30.22F
NORTH PLATTE   CLOUDY    64  46  52 S12       30.24F
MCCOOK         MOSUNNY   67  47  48 SE17      30.23F
LEXINGTON      CLOUDY    65  47  52 SE12      30.26F
STAPLETON        N/A     63  49  59 CALM        N/A
GOTHENBURG       N/A     60  45  58 SE9         N/A
CALLAWAY         N/A     61  50  67 S14         N/A
$$

...OBSERVATIONS IN CENTRAL LINCOLN COUNTY AREA...

CITY           SKY/WX    TMP DP  RH WIND       PRES   REMARKS
N.P. AIRPORT   CLOUDY    64  46  52 S12       30.24F
N.P. DOWNTOWN    N/A     64  49  58 SE5G12      N/A
N.P. SOUTHEAST   N/A     64  48  56 S7G20       N/A
N.P. HILLCREST   N/A     62  47  59 S10G17      N/A
$$

...SOME OBSERVATIONS FROM AROUND THE REGION...

CITY           SKY/WX    TMP DP  RH WIND       PRES   REMARKS
DENVER         PTSUNNY   66  43  43 NE14      30.25S
LARAMIE        CLOUDY    57  48  72 SW9       30.35S
CHEYENNE       LGT RAIN  59  52  77 CALM      30.29S
SCOTTSBLUFF    MOSUNNY   61  44  53 VRB6      30.20F
RAPID CITY     PTSUNNY   62  45  53 S16       30.08S
BISMARCK       LGT RAIN  64  48  56 S20       30.15F
PIERRE         PTSUNNY   65  47  52 SE23      30.15F
SIOUX FALLS    MOSUNNY   67  52  58 SE7       30.30F
OMAHA          MOSUNNY   69  51  52 CALM      30.28F
GRAND ISLAND   SUNNY     66  46  48 S5        30.27F
KANSAS CITY    MOSUNNY   70  54  56 N8        30.23F
WICHITA        MOSUNNY   70  47  43 CALM      30.24F
OKLAHOMA CITY  MOSUNNY   69  46  43 SE3       30.25F
DALLAS         MOSUNNY   75  49  39 VRB5      30.21F
AMARILLO       SUNNY     72  48  42 S17G24    30.25F
DODGE CITY     SUNNY     68  46  45 S13       30.25F
HAYS           SUNNY     66  45  45 S10       30.26S
GOODLAND       MOSUNNY   64  46  52 SE18G26   30.20F
$$




USA.gov is the U.S. government's official web portal to all federal, state and local government web resources and services.